Year,Month,Day,Hour,Minute,Value (Times are PST for temperature in C)
2009,08,11,00,00,14.70
2009,08,11,00,01,14.80
2009,08,11,00,02,14.90
2009,08,11,00,03,15.00
2009,08,11,00,04,15.00
2009,08,11,00,05,15.20
2009,08,11,00,06,15.30
2009,08,11,00,07,15.40
2009,08,11,00,08,15.50
2009,08,11,00,09,15.60
2009,08,11,00,10,15.70
2009,08,11,00,11,15.80
2009,08,11,00,12,15.80
2009,08,11,00,13,15.80
2009,08,11,00,14,15.90
2009,08,11,00,15,15.90
2009,08,11,00,16,15.90
2009,08,11,00,17,15.90
2009,08,11,00,18,15.90
2009,08,11,00,19,16.00
2009,08,11,00,20,16.00
2009,08,11,00,21,16.10
2009,08,11,00,22,16.20
2009,08,11,00,23,16.20
2009,08,11,00,24,16.30
2009,08,11,00,25,16.40
2009,08,11,00,26,16.40
2009,08,11,00,27,16.50
2009,08,11,00,28,16.50
2009,08,11,00,29,16.60
2009,08,11,00,30,16.60
2009,08,11,00,31,16.70
2009,08,11,00,32,16.70
2009,08,11,00,33,16.70
2009,08,11,00,34,16.80
2009,08,11,00,35,16.80
2009,08,11,00,36,16.80
2009,08,11,00,37,16.80
2009,08,11,00,38,16.80
2009,08,11,00,39,16.80
2009,08,11,00,40,16.80
2009,08,11,00,41,16.70
2009,08,11,00,42,16.70
2009,08,11,00,43,16.60
2009,08,11,00,44,16.60
2009,08,11,00,45,16.60
2009,08,11,00,46,16.60
2009,08,11,00,47,16.60
2009,08,11,00,48,16.70
2009,08,11,00,49,16.70
2009,08,11,00,50,16.70
2009,08,11,00,51,16.70
2009,08,11,00,52,16.70
2009,08,11,00,53,16.70
2009,08,11,00,54,16.70
2009,08,11,00,55,16.70
2009,08,11,00,56,16.70
2009,08,11,00,57,16.70
2009,08,11,00,58,16.60
2009,08,11,00,59,16.60
2009,08,11,01,00,16.60
2009,08,11,01,01,16.60
2009,08,11,01,02,16.60
2009,08,11,01,03,16.60
2009,08,11,01,04,16.60
2009,08,11,01,05,16.60
2009,08,11,01,06,16.60
2009,08,11,01,07,16.70
2009,08,11,01,08,16.70
2009,08,11,01,09,16.70
2009,08,11,01,10,16.70
2009,08,11,01,11,16.60
2009,08,11,01,12,16.60
2009,08,11,01,13,16.60
2009,08,11,01,14,16.60
2009,08,11,01,15,16.50
2009,08,11,01,16,16.50
2009,08,11,01,17,16.40
2009,08,11,01,18,16.40
2009,08,11,01,19,16.40
2009,08,11,01,20,16.30
2009,08,11,01,21,16.30
2009,08,11,01,22,16.30
2009,08,11,01,23,16.30
2009,08,11,01,24,16.30
2009,08,11,01,25,16.30
2009,08,11,01,26,16.30
2009,08,11,01,27,16.30
2009,08,11,01,28,16.30
2009,08,11,01,29,16.30
2009,08,11,01,30,16.30
2009,08,11,01,31,16.40
2009,08,11,01,32,16.40
2009,08,11,01,33,16.40
2009,08,11,01,34,16.40
2009,08,11,01,35,16.40
2009,08,11,01,36,16.40
2009,08,11,01,37,16.40
2009,08,11,01,38,16.40
2009,08,11,01,39,16.40
2009,08,11,01,40,16.40
2009,08,11,01,41,16.40
2009,08,11,01,42,16.40
2009,08,11,01,43,16.40
2009,08,11,01,44,16.30
2009,08,11,01,45,16.30
2009,08,11,01,46,16.30
2009,08,11,01,47,16.30
2009,08,11,01,48,16.30
2009,08,11,01,49,16.20
2009,08,11,01,50,16.20
2009,08,11,01,51,16.20
2009,08,11,01,52,16.20
2009,08,11,01,53,16.10
2009,08,11,01,54,16.10
2009,08,11,01,55,16.10
2009,08,11,01,56,16.10
2009,08,11,01,57,16.10
2009,08,11,01,58,16.10
2009,08,11,01,59,16.10
2009,08,11,02,00,16.10
2009,08,11,02,01,16.10
2009,08,11,02,02,16.10
2009,08,11,02,03,16.10
2009,08,11,02,04,16.10
2009,08,11,02,05,16.10
2009,08,11,02,06,16.10
2009,08,11,02,07,16.10
2009,08,11,02,08,16.00
2009,08,11,02,09,16.00
2009,08,11,02,10,15.90
2009,08,11,02,11,15.90
2009,08,11,02,12,15.90
2009,08,11,02,13,15.90
2009,08,11,02,14,15.90
2009,08,11,02,15,15.90
2009,08,11,02,16,15.80
2009,08,11,02,17,15.80
2009,08,11,02,18,15.80
2009,08,11,02,19,15.70
2009,08,11,02,20,15.70
2009,08,11,02,21,15.70
2009,08,11,02,22,15.60
2009,08,11,02,23,15.60
2009,08,11,02,24,15.50
2009,08,11,02,25,15.50
2009,08,11,02,26,15.40
2009,08,11,02,27,15.40
2009,08,11,02,28,15.40
2009,08,11,02,29,15.30
2009,08,11,02,30,15.30
2009,08,11,02,31,15.30
2009,08,11,02,32,15.30
2009,08,11,02,33,15.30
2009,08,11,02,34,15.20
2009,08,11,02,35,15.20
2009,08,11,02,36,15.20
2009,08,11,02,37,15.20
2009,08,11,02,38,15.20
2009,08,11,02,39,15.10
2009,08,11,02,40,15.10
2009,08,11,02,41,15.10
2009,08,11,02,42,15.00
2009,08,11,02,43,15.00
2009,08,11,02,44,15.00
2009,08,11,02,45,15.00
2009,08,11,02,46,15.00
2009,08,11,02,47,15.00
2009,08,11,02,48,15.00
2009,08,11,02,49,15.00
2009,08,11,02,50,15.00
2009,08,11,02,51,15.00
2009,08,11,02,52,15.00
2009,08,11,02,53,15.00
2009,08,11,02,54,15.00
2009,08,11,02,55,15.00
2009,08,11,02,56,15.00
2009,08,11,02,57,15.00
2009,08,11,02,58,15.00
2009,08,11,02,59,15.00
2009,08,11,03,00,15.00
2009,08,11,03,01,15.00
2009,08,11,03,02,14.90
2009,08,11,03,03,14.90
2009,08,11,03,04,14.80
2009,08,11,03,05,14.80
2009,08,11,03,06,14.80
2009,08,11,03,07,14.80
2009,08,11,03,08,14.70
2009,08,11,03,09,14.70
2009,08,11,03,10,14.70
2009,08,11,03,11,14.70
2009,08,11,03,12,14.70
2009,08,11,03,13,14.60
2009,08,11,03,14,14.60
2009,08,11,03,15,14.60
2009,08,11,03,16,14.60
2009,08,11,03,17,14.60
2009,08,11,03,18,14.60
2009,08,11,03,19,14.50
2009,08,11,03,20,14.50
2009,08,11,03,21,14.50
2009,08,11,03,22,14.50
2009,08,11,03,23,14.40
2009,08,11,03,24,14.40
2009,08,11,03,25,14.40
2009,08,11,03,26,14.40
2009,08,11,03,27,14.40
2009,08,11,03,28,14.40
2009,08,11,03,29,14.40
2009,08,11,03,30,14.40
2009,08,11,03,31,14.40
2009,08,11,03,32,14.40
2009,08,11,03,33,14.40
2009,08,11,03,34,14.40
2009,08,11,03,35,14.40
2009,08,11,03,36,14.40
2009,08,11,03,37,14.40
2009,08,11,03,38,14.40
2009,08,11,03,39,14.40
2009,08,11,03,40,14.40
2009,08,11,03,41,14.40
2009,08,11,03,42,14.40
2009,08,11,03,43,14.40
2009,08,11,03,44,14.30
2009,08,11,03,45,14.30
2009,08,11,03,46,14.30
2009,08,11,03,47,14.30
2009,08,11,03,48,14.30
2009,08,11,03,49,14.30
2009,08,11,03,50,14.30
2009,08,11,03,51,14.30
2009,08,11,03,52,14.30
2009,08,11,03,53,14.30
2009,08,11,03,54,14.30
2009,08,11,03,55,14.30
2009,08,11,03,56,14.20
2009,08,11,03,57,14.20
2009,08,11,03,58,14.20
2009,08,11,03,59,14.20
2009,08,11,04,00,14.20
2009,08,11,04,01,14.20
2009,08,11,04,02,14.20
2009,08,11,04,03,14.20
2009,08,11,04,05,14.20
2009,08,11,04,06,14.20
2009,08,11,04,08,14.10
2009,08,11,04,13,14.20
2009,08,11,04,16,14.20
2009,08,11,04,17,14.20
2009,08,11,04,19,14.20
2009,08,11,04,22,14.10
2009,08,11,04,23,14.10
2009,08,11,04,25,14.10
2009,08,11,04,28,14.10
2009,08,11,04,30,14.00
2009,08,11,04,31,13.90
2009,08,11,04,32,13.90
2009,08,11,04,33,13.90
2009,08,11,04,34,13.80
2009,08,11,04,35,13.80
2009,08,11,04,36,13.80
2009,08,11,04,37,13.80
2009,08,11,04,39,13.80
2009,08,11,04,40,13.80
2009,08,11,04,42,13.70
2009,08,11,04,43,13.70
2009,08,11,04,44,13.70
2009,08,11,04,45,13.70
2009,08,11,04,46,13.70
2009,08,11,04,47,13.60
2009,08,11,04,48,13.60
2009,08,11,04,49,13.60
2009,08,11,04,50,13.60
2009,08,11,04,51,13.60
2009,08,11,04,52,13.60
2009,08,11,04,53,13.60
2009,08,11,04,54,13.70
2009,08,11,04,55,13.70
2009,08,11,04,56,13.80
2009,08,11,04,57,14.00
2009,08,11,04,58,14.30
2009,08,11,04,59,14.60
2009,08,11,05,00,14.90
2009,08,11,05,01,15.00
2009,08,11,05,02,15.30
2009,08,11,05,03,15.40
2009,08,11,05,04,15.60
2009,08,11,05,05,15.70
2009,08,11,05,06,15.80
2009,08,11,05,07,15.90
2009,08,11,05,08,16.00
2009,08,11,05,09,16.00
2009,08,11,05,10,16.00
2009,08,11,05,11,16.10
2009,08,11,05,12,16.10
2009,08,11,05,13,16.20
2009,08,11,05,14,16.20
2009,08,11,05,15,16.20
2009,08,11,05,16,16.20
2009,08,11,05,17,16.30
2009,08,11,05,18,16.30
2009,08,11,05,19,16.30
2009,08,11,05,20,16.30
2009,08,11,05,21,16.30
2009,08,11,05,22,16.30
2009,08,11,05,23,16.30
2009,08,11,05,24,16.30
2009,08,11,05,25,16.40
2009,08,11,05,26,16.40
2009,08,11,05,27,16.40
2009,08,11,05,28,16.40
2009,08,11,05,29,16.30
2009,08,11,05,30,16.30
2009,08,11,05,31,16.40
2009,08,11,05,32,16.40
2009,08,11,05,33,16.40
2009,08,11,05,34,16.40
2009,08,11,05,35,16.40
2009,08,11,05,36,16.40
2009,08,11,05,37,16.40
2009,08,11,05,38,16.40
2009,08,11,05,39,16.40
2009,08,11,05,40,16.40
2009,08,11,05,41,16.30
2009,08,11,05,42,16.30
2009,08,11,05,43,16.30
2009,08,11,05,44,16.30
2009,08,11,05,45,16.30
2009,08,11,05,46,16.30
2009,08,11,05,47,16.30
2009,08,11,05,48,16.40
2009,08,11,05,49,16.40
2009,08,11,05,50,16.40
2009,08,11,05,51,16.40
2009,08,11,05,52,16.40
2009,08,11,05,53,16.40
2009,08,11,05,54,16.40
2009,08,11,05,55,16.40
2009,08,11,05,56,16.30
2009,08,11,05,57,16.30
2009,08,11,05,58,16.30
2009,08,11,05,59,16.20
2009,08,11,06,00,16.20
2009,08,11,06,01,16.20
2009,08,11,06,02,16.20
2009,08,11,06,03,16.20
2009,08,11,06,04,16.10
2009,08,11,06,05,16.10
2009,08,11,06,06,16.10
2009,08,11,06,07,16.10
2009,08,11,06,08,16.10
2009,08,11,06,09,16.10
2009,08,11,06,10,16.00
2009,08,11,06,11,16.00
2009,08,11,06,12,16.00
2009,08,11,06,13,15.90
2009,08,11,06,14,15.90
2009,08,11,06,15,15.90
2009,08,11,06,16,15.90
2009,08,11,06,17,15.90
2009,08,11,06,18,15.90
2009,08,11,06,19,15.90
2009,08,11,06,20,15.90
2009,08,11,06,21,15.90
2009,08,11,06,22,15.90
2009,08,11,06,23,15.90
2009,08,11,06,24,15.90
2009,08,11,06,25,15.90
2009,08,11,06,26,15.90
2009,08,11,06,27,15.90
2009,08,11,06,28,15.90
2009,08,11,06,29,15.90
2009,08,11,06,30,15.90
2009,08,11,06,31,15.90
2009,08,11,06,32,15.90
2009,08,11,06,33,15.90
2009,08,11,06,34,16.00
2009,08,11,06,35,16.00
2009,08,11,06,36,16.00
2009,08,11,06,37,16.00
2009,08,11,06,38,16.00
2009,08,11,06,39,15.90
2009,08,11,06,40,15.90
2009,08,11,06,41,15.90
2009,08,11,06,42,15.90
2009,08,11,06,43,15.90
2009,08,11,06,44,16.00
2009,08,11,06,45,16.00
2009,08,11,06,46,16.10
2009,08,11,06,47,16.10
2009,08,11,06,48,16.20
2009,08,11,06,49,16.20
2009,08,11,06,50,16.20
2009,08,11,06,51,16.30
2009,08,11,06,52,16.30
2009,08,11,06,53,16.30
2009,08,11,06,54,16.30
2009,08,11,06,55,16.30
2009,08,11,06,56,16.30
2009,08,11,06,57,16.30
2009,08,11,06,58,16.30
2009,08,11,06,59,16.30
2009,08,11,07,00,16.30
2009,08,11,07,01,16.30
2009,08,11,07,02,16.20
2009,08,11,07,03,16.20
2009,08,11,07,04,16.10
2009,08,11,07,05,16.00
2009,08,11,07,06,16.00
2009,08,11,07,07,15.90
2009,08,11,07,08,15.90
2009,08,11,07,09,15.80
2009,08,11,07,10,15.70
2009,08,11,07,11,15.60
2009,08,11,07,12,15.50
2009,08,11,07,13,15.50
2009,08,11,07,14,15.40
2009,08,11,07,15,15.30
2009,08,11,07,16,15.30
2009,08,11,07,17,15.20
2009,08,11,07,18,15.20
2009,08,11,07,19,15.20
2009,08,11,07,20,15.20
2009,08,11,07,21,15.20
2009,08,11,07,22,15.20
2009,08,11,07,23,15.10
2009,08,11,07,24,15.10
2009,08,11,07,25,15.10
2009,08,11,07,26,15.10
2009,08,11,07,27,15.10
2009,08,11,07,28,15.10
2009,08,11,07,29,15.10
2009,08,11,07,30,15.10
2009,08,11,07,31,15.10
2009,08,11,07,32,15.20
2009,08,11,07,33,15.20
2009,08,11,07,34,15.20
2009,08,11,07,35,15.20
2009,08,11,07,36,15.20
2009,08,11,07,37,15.20
2009,08,11,07,38,15.20
2009,08,11,07,39,15.20
2009,08,11,07,40,15.20
2009,08,11,07,41,15.20
2009,08,11,07,42,15.20
2009,08,11,07,43,15.20
2009,08,11,07,44,15.20
2009,08,11,07,45,15.20
2009,08,11,07,46,15.20
2009,08,11,07,47,15.30
2009,08,11,07,48,15.30
2009,08,11,07,49,15.40
2009,08,11,07,50,15.40
2009,08,11,07,51,15.40
2009,08,11,07,52,15.50
2009,08,11,07,53,15.50
2009,08,11,07,54,15.60
2009,08,11,07,55,15.70
2009,08,11,07,56,15.80
2009,08,11,07,57,15.80
2009,08,11,07,58,15.80
2009,08,11,07,59,15.80
2009,08,11,08,00,15.80
2009,08,11,08,01,15.80
2009,08,11,08,02,15.90
2009,08,11,08,03,15.90
2009,08,11,08,04,16.00
2009,08,11,08,05,16.10
2009,08,11,08,06,16.10
2009,08,11,08,07,16.20
2009,08,11,08,08,16.20
2009,08,11,08,09,16.30
2009,08,11,08,10,16.30
2009,08,11,08,11,16.40
2009,08,11,08,12,16.40
2009,08,11,08,13,16.50
2009,08,11,08,14,16.60
2009,08,11,08,15,16.70
2009,08,11,08,16,16.70
2009,08,11,08,17,16.70
2009,08,11,08,18,16.70
2009,08,11,08,19,16.80
2009,08,11,08,20,16.80
2009,08,11,08,21,16.80
2009,08,11,08,22,16.90
2009,08,11,08,23,16.90
2009,08,11,08,24,16.90
2009,08,11,08,25,16.90
2009,08,11,08,26,16.90
2009,08,11,08,27,17.00
2009,08,11,08,28,17.00
2009,08,11,08,29,17.10
2009,08,11,08,30,17.10
2009,08,11,08,31,17.10
2009,08,11,08,32,17.20
2009,08,11,08,33,17.30
2009,08,11,08,34,17.40
2009,08,11,08,35,17.50
2009,08,11,08,36,17.60
2009,08,11,08,37,17.80
2009,08,11,08,38,17.80
2009,08,11,08,39,17.70
2009,08,11,08,40,17.60
2009,08,11,08,41,17.50
2009,08,11,08,42,17.50
2009,08,11,08,43,17.40
2009,08,11,08,44,17.40
2009,08,11,08,45,17.40
2009,08,11,08,46,17.40
2009,08,11,08,47,17.40
2009,08,11,08,48,17.40
2009,08,11,08,49,17.40
2009,08,11,08,50,17.50
2009,08,11,08,51,17.50
2009,08,11,08,52,17.50
2009,08,11,08,53,17.60
2009,08,11,08,54,17.60
2009,08,11,08,55,17.70
2009,08,11,08,56,17.70
2009,08,11,08,57,17.70
2009,08,11,08,58,17.60
2009,08,11,08,59,17.60
2009,08,11,09,00,17.60
2009,08,11,09,01,17.60
2009,08,11,09,02,17.60
2009,08,11,09,03,17.50
2009,08,11,09,04,17.50
2009,08,11,09,05,17.50
2009,08,11,09,06,17.60
2009,08,11,09,07,17.60
2009,08,11,09,08,17.70
2009,08,11,09,09,17.80
2009,08,11,09,10,17.80
2009,08,11,09,11,17.80
2009,08,11,09,12,17.90
2009,08,11,09,13,17.90
2009,08,11,09,14,17.90
2009,08,11,09,15,17.90
2009,08,11,09,16,17.90
2009,08,11,09,17,18.00
2009,08,11,09,18,18.00
2009,08,11,09,19,18.00
2009,08,11,09,20,18.00
2009,08,11,09,21,18.10
2009,08,11,09,22,18.10
2009,08,11,09,23,18.10
2009,08,11,09,24,18.20
2009,08,11,09,25,18.10
2009,08,11,09,26,18.10
2009,08,11,09,27,18.20
2009,08,11,09,28,18.20
2009,08,11,09,29,18.20
2009,08,11,09,30,18.20
2009,08,11,09,31,18.20
2009,08,11,09,32,18.30
2009,08,11,09,33,18.30
2009,08,11,09,34,18.30
2009,08,11,09,35,18.30
2009,08,11,09,36,18.30
2009,08,11,09,37,18.30
2009,08,11,09,38,18.30
2009,08,11,09,39,18.40
2009,08,11,09,40,18.40
2009,08,11,09,41,18.40
2009,08,11,09,42,18.40
2009,08,11,09,43,18.40
2009,08,11,09,44,18.40
2009,08,11,09,45,18.40
2009,08,11,09,46,18.40
2009,08,11,09,47,18.50
2009,08,11,09,48,18.50
2009,08,11,09,49,18.60
2009,08,11,09,50,18.60
2009,08,11,09,51,18.60
2009,08,11,09,52,18.60
2009,08,11,09,53,18.70
2009,08,11,09,54,18.70
2009,08,11,09,55,18.70
2009,08,11,09,56,18.60
2009,08,11,09,57,18.60
2009,08,11,09,58,18.60
2009,08,11,09,59,18.70
2009,08,11,10,00,18.70
2009,08,11,10,01,18.70
2009,08,11,10,02,18.80
2009,08,11,10,03,18.90
2009,08,11,10,04,19.00
2009,08,11,10,05,19.20
2009,08,11,10,06,19.30
2009,08,11,10,07,19.30
2009,08,11,10,08,19.40
2009,08,11,10,09,19.40
2009,08,11,10,10,19.40
2009,08,11,10,11,19.40
2009,08,11,10,12,19.40
2009,08,11,10,13,19.40
2009,08,11,10,14,19.40
2009,08,11,10,15,19.40
2009,08,11,10,16,19.40
2009,08,11,10,17,19.50
2009,08,11,10,18,19.50
2009,08,11,10,19,19.50
2009,08,11,10,20,19.30
2009,08,11,10,21,19.10
2009,08,11,10,22,19.00
2009,08,11,10,23,18.90
2009,08,11,10,24,18.80
2009,08,11,10,25,18.70
2009,08,11,10,26,18.60
2009,08,11,10,27,18.50
2009,08,11,10,28,18.30
2009,08,11,10,29,18.00
2009,08,11,10,30,17.80
2009,08,11,10,31,17.80
2009,08,11,10,32,17.60
2009,08,11,10,33,17.60
2009,08,11,10,34,17.60
2009,08,11,10,35,17.60
2009,08,11,10,36,17.70
2009,08,11,10,37,17.90
2009,08,11,10,38,18.00
2009,08,11,10,39,18.10
2009,08,11,10,40,18.10
2009,08,11,10,41,18.20
2009,08,11,10,42,18.10
2009,08,11,10,43,18.10
2009,08,11,10,44,18.00
2009,08,11,10,45,17.80
2009,08,11,10,46,17.70
2009,08,11,10,47,17.50
2009,08,11,10,48,17.30
2009,08,11,10,49,17.20
2009,08,11,10,50,17.00
2009,08,11,10,51,17.00
2009,08,11,10,52,16.90
2009,08,11,10,53,17.00
2009,08,11,10,54,17.10
2009,08,11,10,55,17.10
2009,08,11,10,56,17.20
2009,08,11,10,57,17.30
2009,08,11,10,58,17.40
2009,08,11,10,59,17.50
2009,08,11,11,00,17.70
2009,08,11,11,01,17.80
2009,08,11,11,02,17.90
2009,08,11,11,03,18.00
2009,08,11,11,04,18.10
2009,08,11,11,05,18.30
2009,08,11,11,06,18.40
2009,08,11,11,07,18.50
2009,08,11,11,08,18.50
2009,08,11,11,09,18.40
2009,08,11,11,10,18.20
2009,08,11,11,11,18.00
2009,08,11,11,12,18.00
2009,08,11,11,13,17.90
2009,08,11,11,14,18.00
2009,08,11,11,15,17.90
2009,08,11,11,16,17.90
2009,08,11,11,17,18.00
2009,08,11,11,18,18.00
2009,08,11,11,19,18.00
2009,08,11,11,20,17.90
2009,08,11,11,21,17.90
2009,08,11,11,22,17.90
2009,08,11,11,23,17.80
2009,08,11,11,24,17.70
2009,08,11,11,25,17.70
2009,08,11,11,26,17.70
2009,08,11,11,27,17.80
2009,08,11,11,28,17.80
2009,08,11,11,29,17.90
2009,08,11,11,30,17.90
2009,08,11,11,31,17.90
2009,08,11,11,32,18.00
2009,08,11,11,33,18.10
2009,08,11,11,34,18.00
2009,08,11,11,35,18.00
2009,08,11,11,36,18.00
2009,08,11,11,37,18.00
2009,08,11,11,38,18.00
2009,08,11,11,39,18.10
2009,08,11,11,40,18.10
2009,08,11,11,41,18.10
2009,08,11,11,42,18.00
2009,08,11,11,43,17.90
2009,08,11,11,44,17.90
2009,08,11,11,45,17.80
2009,08,11,11,46,17.80
2009,08,11,11,47,17.80
2009,08,11,11,48,17.80
2009,08,11,11,49,17.90
2009,08,11,11,50,17.90
2009,08,11,11,51,17.90
2009,08,11,11,52,17.90
2009,08,11,11,53,18.00
2009,08,11,11,54,18.00
2009,08,11,11,55,18.00
2009,08,11,11,56,18.00
2009,08,11,11,57,17.90
2009,08,11,11,58,17.80
2009,08,11,11,59,17.70
2009,08,11,12,00,17.60
2009,08,11,12,01,17.60
2009,08,11,12,02,17.60
2009,08,11,12,03,17.70
2009,08,11,12,04,17.70
2009,08,11,12,05,17.70
2009,08,11,12,06,17.80
2009,08,11,12,07,17.70
2009,08,11,12,08,17.80
2009,08,11,12,09,17.90
2009,08,11,12,10,17.90
2009,08,11,12,11,18.10
2009,08,11,12,12,18.20
2009,08,11,12,13,18.30
2009,08,11,12,14,18.50
2009,08,11,12,15,18.70
2009,08,11,12,16,18.80
2009,08,11,12,17,18.90
2009,08,11,12,18,18.90
2009,08,11,12,19,18.90
2009,08,11,12,20,18.90
2009,08,11,12,21,18.90
2009,08,11,12,22,18.90
2009,08,11,12,23,18.90
2009,08,11,12,24,18.80
2009,08,11,12,25,18.80
2009,08,11,12,26,18.90
2009,08,11,12,27,19.00
2009,08,11,12,28,19.10
2009,08,11,12,29,19.20
2009,08,11,12,30,19.20
2009,08,11,12,31,19.20
2009,08,11,12,32,19.30
2009,08,11,12,33,19.30
2009,08,11,12,34,19.30
2009,08,11,12,35,19.40
2009,08,11,12,36,19.40
2009,08,11,12,37,19.20
2009,08,11,12,38,19.00
2009,08,11,12,39,18.90
2009,08,11,12,40,18.80
2009,08,11,12,41,18.70
2009,08,11,12,42,18.60
2009,08,11,12,43,18.60
2009,08,11,12,44,18.60
2009,08,11,12,45,18.60
2009,08,11,12,46,18.70
2009,08,11,12,47,18.70
2009,08,11,12,48,18.60
2009,08,11,12,49,18.70
2009,08,11,12,50,18.70
2009,08,11,12,51,18.70
2009,08,11,12,52,18.50
2009,08,11,12,53,18.40
2009,08,11,12,54,18.20
2009,08,11,12,55,18.10
2009,08,11,12,56,18.00
2009,08,11,12,57,18.00
2009,08,11,12,58,18.00
2009,08,11,12,59,18.00
2009,08,11,13,00,18.00
2009,08,11,13,01,17.90
2009,08,11,13,02,17.90
2009,08,11,13,03,17.90
2009,08,11,13,04,17.90
2009,08,11,13,05,17.90
2009,08,11,13,06,17.80
2009,08,11,13,07,17.80
2009,08,11,13,08,17.70
2009,08,11,13,09,17.60
2009,08,11,13,10,17.60
2009,08,11,13,11,17.70
2009,08,11,13,12,17.70
2009,08,11,13,13,17.70
2009,08,11,13,14,17.80
2009,08,11,13,15,17.90
2009,08,11,13,16,18.00
2009,08,11,13,17,18.10
2009,08,11,13,18,18.20
2009,08,11,13,19,18.10
2009,08,11,13,20,17.90
2009,08,11,13,21,17.70
2009,08,11,13,22,17.70
2009,08,11,13,23,17.70
2009,08,11,13,24,17.70
2009,08,11,13,25,17.60
2009,08,11,13,26,17.60
2009,08,11,13,27,17.60
2009,08,11,13,28,17.70
2009,08,11,13,29,17.70
2009,08,11,13,30,17.70
2009,08,11,13,31,17.70
2009,08,11,13,32,17.70
2009,08,11,13,33,17.80
2009,08,11,13,34,17.80
2009,08,11,13,35,17.80
2009,08,11,13,36,17.90
2009,08,11,13,37,17.90
2009,08,11,13,38,17.80
2009,08,11,13,39,17.80
2009,08,11,13,40,17.80
2009,08,11,13,41,17.60
2009,08,11,13,42,17.60
2009,08,11,13,43,17.60
2009,08,11,13,44,17.60
2009,08,11,13,45,17.50
2009,08,11,13,46,17.40
2009,08,11,13,47,17.40
2009,08,11,13,48,17.40
2009,08,11,13,49,17.40
2009,08,11,13,50,17.50
2009,08,11,13,51,17.60
2009,08,11,13,52,17.70
2009,08,11,13,53,17.80
2009,08,11,13,54,17.90
2009,08,11,13,55,17.90
2009,08,11,13,56,17.90
2009,08,11,13,57,17.80
2009,08,11,13,58,17.80
2009,08,11,13,59,17.80
2009,08,11,14,00,17.90
2009,08,11,14,01,17.90
2009,08,11,14,02,18.00
2009,08,11,14,03,18.10
2009,08,11,14,04,18.10
2009,08,11,14,05,18.10
2009,08,11,14,06,18.10
2009,08,11,14,07,18.10
2009,08,11,14,08,18.20
2009,08,11,14,09,18.20
2009,08,11,14,10,18.10
2009,08,11,14,11,18.10
2009,08,11,14,12,18.10
2009,08,11,14,13,18.20
2009,08,11,14,14,18.20
2009,08,11,14,15,18.20
2009,08,11,14,16,18.30
2009,08,11,14,17,18.30
2009,08,11,14,18,18.40
2009,08,11,14,19,18.40
2009,08,11,14,20,18.40
2009,08,11,14,21,18.40
2009,08,11,14,22,18.30
2009,08,11,14,23,18.30
2009,08,11,14,24,18.30
2009,08,11,14,25,18.30
2009,08,11,14,26,18.30
2009,08,11,14,27,18.30
2009,08,11,14,28,18.30
2009,08,11,14,29,18.30
2009,08,11,14,30,18.30
2009,08,11,14,31,18.30
2009,08,11,14,32,18.30
2009,08,11,14,33,18.30
2009,08,11,14,34,18.30
2009,08,11,14,35,18.30
2009,08,11,14,36,18.30
2009,08,11,14,37,18.30
2009,08,11,14,38,18.30
2009,08,11,14,39,18.30
2009,08,11,14,40,18.30
2009,08,11,14,41,18.40
2009,08,11,14,42,18.40
2009,08,11,14,43,18.50
2009,08,11,14,44,18.50
2009,08,11,14,45,18.50
2009,08,11,14,46,18.50
2009,08,11,14,47,18.50
2009,08,11,14,48,18.50
2009,08,11,14,49,18.50
2009,08,11,14,50,18.40
2009,08,11,14,51,18.40
2009,08,11,14,52,18.30
2009,08,11,14,53,18.30
2009,08,11,14,54,18.30
2009,08,11,14,55,18.20
2009,08,11,14,56,18.20
2009,08,11,14,57,18.20
2009,08,11,14,58,18.20
2009,08,11,14,59,18.10
2009,08,11,15,00,18.10
2009,08,11,15,01,18.10
2009,08,11,15,02,18.10
2009,08,11,15,03,18.00
2009,08,11,15,04,17.90
2009,08,11,15,05,17.90
2009,08,11,15,06,17.80
2009,08,11,15,07,17.80
2009,08,11,15,08,17.80
2009,08,11,15,09,17.80
2009,08,11,15,10,17.80
2009,08,11,15,11,17.90
2009,08,11,15,12,17.90
2009,08,11,15,13,18.00
2009,08,11,15,14,18.10
2009,08,11,15,15,18.10
2009,08,11,15,16,18.20
2009,08,11,15,17,18.20
2009,08,11,15,18,18.20
2009,08,11,15,19,18.20
2009,08,11,15,20,18.30
2009,08,11,15,21,18.30
2009,08,11,15,22,18.30
2009,08,11,15,23,18.20
2009,08,11,15,24,18.20
2009,08,11,15,25,18.20
2009,08,11,15,26,18.20
2009,08,11,15,27,18.20
2009,08,11,15,28,18.20
2009,08,11,15,29,18.20
2009,08,11,15,30,18.20
2009,08,11,15,31,18.20
2009,08,11,15,32,18.10
2009,08,11,15,33,18.10
2009,08,11,15,34,18.10
2009,08,11,15,35,18.10
2009,08,11,15,36,18.10
2009,08,11,15,37,18.10
2009,08,11,15,38,18.20
2009,08,11,15,39,18.20
2009,08,11,15,40,18.30
2009,08,11,15,41,18.30
2009,08,11,15,42,18.40
2009,08,11,15,43,18.40
2009,08,11,15,44,18.40
2009,08,11,15,45,18.40
2009,08,11,15,46,18.40
2009,08,11,15,47,18.40
2009,08,11,15,48,18.50
2009,08,11,15,49,18.50
2009,08,11,15,50,18.60
2009,08,11,15,51,18.60
2009,08,11,15,52,18.60
2009,08,11,15,53,18.60
2009,08,11,15,54,18.40
2009,08,11,15,55,18.30
2009,08,11,15,56,18.20
2009,08,11,15,57,18.10
2009,08,11,15,58,17.90
2009,08,11,15,59,17.80
2009,08,11,16,00,17.80
2009,08,11,16,01,17.70
2009,08,11,16,02,17.70
2009,08,11,16,03,17.70
2009,08,11,16,04,17.80
2009,08,11,16,05,17.80
2009,08,11,16,06,17.80
2009,08,11,16,07,17.90
2009,08,11,16,08,17.90
2009,08,11,16,09,17.90
2009,08,11,16,10,17.90
2009,08,11,16,11,17.80
2009,08,11,16,12,17.80
2009,08,11,16,13,17.80
2009,08,11,16,14,17.80
2009,08,11,16,15,17.80
2009,08,11,16,16,17.70
2009,08,11,16,17,17.70
2009,08,11,16,18,17.70
2009,08,11,16,19,17.70
2009,08,11,16,20,17.70
2009,08,11,16,21,17.70
2009,08,11,16,22,17.80
2009,08,11,16,23,17.80
2009,08,11,16,24,17.80
2009,08,11,16,25,17.80
2009,08,11,16,26,17.80
2009,08,11,16,27,17.80
2009,08,11,16,28,17.80
2009,08,11,16,29,17.80
2009,08,11,16,30,17.80
2009,08,11,16,31,17.90
2009,08,11,16,32,17.90
2009,08,11,16,33,18.00
2009,08,11,16,34,18.10
2009,08,11,16,35,18.10
2009,08,11,16,36,18.20
2009,08,11,16,37,18.30
2009,08,11,16,38,18.30
2009,08,11,16,39,18.30
2009,08,11,16,40,18.30
2009,08,11,16,41,18.20
2009,08,11,16,42,18.20
2009,08,11,16,43,18.20
2009,08,11,16,44,18.20
2009,08,11,16,45,18.20
2009,08,11,16,46,18.10
2009,08,11,16,47,18.10
2009,08,11,16,48,18.10
2009,08,11,16,49,18.10
2009,08,11,16,50,18.00
2009,08,11,16,51,18.00
2009,08,11,16,52,17.90
2009,08,11,16,53,18.00
2009,08,11,16,54,18.00
2009,08,11,16,55,17.90
2009,08,11,16,56,17.90
2009,08,11,16,57,17.90
2009,08,11,16,58,17.90
2009,08,11,16,59,17.90
2009,08,11,17,00,17.90
2009,08,11,17,01,17.90
2009,08,11,17,02,17.90
2009,08,11,17,03,17.90
2009,08,11,17,04,17.90
2009,08,11,17,05,18.00
2009,08,11,17,06,17.90
2009,08,11,17,07,18.00
2009,08,11,17,08,17.90
2009,08,11,17,09,17.90
2009,08,11,17,10,17.90
2009,08,11,17,11,17.80
2009,08,11,17,12,17.70
2009,08,11,17,13,17.60
2009,08,11,17,14,17.50
2009,08,11,17,15,17.40
2009,08,11,17,16,17.40
2009,08,11,17,17,17.30
2009,08,11,17,18,17.30
2009,08,11,17,19,17.30
2009,08,11,17,20,17.40
2009,08,11,17,21,17.40
2009,08,11,17,22,17.40
2009,08,11,17,23,17.40
2009,08,11,17,24,17.40
2009,08,11,17,25,17.30
2009,08,11,17,26,17.30
2009,08,11,17,27,17.30
2009,08,11,17,28,17.40
2009,08,11,17,29,17.30
2009,08,11,17,30,17.30
2009,08,11,17,31,17.30
2009,08,11,17,32,17.30
2009,08,11,17,33,17.20
2009,08,11,17,34,17.20
2009,08,11,17,35,17.20
2009,08,11,17,36,17.20